ニート彗星

169P/NEAT (2022)

English version
Home page
Updated on October 14, 2023

---------------------------------------------------------------------

・ プロフィール

・ 写真集

・ 軌道要素

Epoch 2023 Feb. 25.0 TT = JDT 2460000.5
T 2022 July  9.68827 TT                                 Rudenko
q   0.6028991            (2000.0)            P               Q
n   0.23474438     Peri.  218.05430     +0.82670515     -0.56247767
a   2.6025909      Node   176.10114     +0.55221440     +0.80662971
e   0.7683466      Incl.   11.29845     +0.10778615     +0.18156923
P   4.20
>From 1321 observations 1989 Mar. 7-2023 Mar. 16, mean residual 0".5.

・ 星図

・ 光度変化

        H = 15.3  G = 0.15                [   ,-61]  (              〜2022年 5月 9日)
        m1 = 15.8 + 5 logΔ + 20.0 log r  [-61, 50]  (2022年 5月 9日〜2022年 8月28日)
        H = 15.3  G = 0.15                [ 50,   ]  (2022年 8月28日〜              )

---------------------------------------------------------------------

軌道要素はM.P.E.C. 2023-F81に掲載されたものです。
星図はステラナビゲータ Ver.10 (アストロアーツ) で作成したものです。
光度グラフはComet for Windowsで作成したものです。

---------------------------------------------------------------------

Copyright(C) Seiichi Yoshida (comet@aerith.net). All rights reserved.